Location: Ammenhausen
(51.9732°N, 10.0674°E)
Time: 08:42:43
(UTC+00:00)

Daily predictions for brighter satellites

Satellite Brightness Start Highest point End
(mag) Time Altitude Azimuth Time Altitude Azimuth Time Altitude Azimuth
Cosmos 1459 Rocket 4.4 19:36:22 10° SSW 19:42:32 69° WNW 19:48:40 10° N
Cosmos 2061 Rocket 4.2 19:37:55 10° S 19:43:59 57° E 19:50:10 10° NNE
CZ-4 R/B 2.7 19:41:56 10° SSW 19:45:17 35° W 19:48:40 10° NNW
USA 186 2.0 19:43:30 10° SE 19:46:06 41° ENE 19:48:45 10° N
Cosmos 2228 2.9 19:42:27 10° S 19:46:32 73° E 19:50:38 10° NNE
COSMOS 2406 3.6 19:41:47 10° S 19:47:10 43° ESE 19:52:33 10° NE
SL-08 R/B 3.5 19:42:29 10° NNE 19:47:14 56° E 19:51:52 10° S
CZ-4B R/B 4.4 19:44:13 10° SE 19:48:28 33° ENE 19:52:49 10° N
Cosmos 1743 3.7 19:45:52 10° NNW 19:48:39 35° W 19:51:26 10° SSW
Cosmos 1933 4.4 19:46:04 10° SE 19:49:13 25° E 19:52:22 10° NNE
ISS -3.8 19:46:32 10° W 19:49:53 81° S 19:53:14 10° E
Cosmos 1892 Rocket 4.5 19:46:39 10° NNW 19:50:50 49° W 19:54:58 10° SSW
Cosmos 1461 3.4 19:47:45 10° S 19:51:01 30° ESE 19:54:16 10° ENE
SKYMED 3 4.3 19:47:10 10° NNE 19:51:07 72° ESE 19:55:05 10° S
Cosmos 1455 Rocket 3.5 19:46:56 10° SSW 19:51:19 69° WNW 19:55:42 10° N
Cosmos 1992 Rocket 4.1 19:46:21 10° S 19:51:26 58° ESE 19:56:33 10° NNE
Cosmos 1802 Rocket 4.2 19:46:11 10° SSW 19:52:21 76° WNW 19:58:31 10° N
Meteor 1-20 Rocket 4.4 19:47:28 10° N 19:53:00 58° ENE 19:58:36 10° SSE
Terra 2.4 19:48:43 10° S 19:53:20 59° W 19:58:00 10° NNW
Okean O Rocket 1.6 19:53:35 10° SSE 19:57:53 81° ENE 20:02:13 10° NNW
Cosmos 2333 Rocket 2.3 19:52:49 10° NNW 19:58:33 75° ENE 20:04:16 10° SE
NOSS 3-3 (A) 3.7 19:59:44 10° SW 20:04:58 77° SE 20:11:20 10° NE
Cosmos 1544 Rocket 3.8 20:00:54 10° S 20:05:06 50° E 20:09:17 10° NNE
Cosmos 1437 Rocket 3.0 20:04:11 10° SSE 20:07:32 40° E 20:10:56 10° NNE
Cosmos 2360 Rocket 2.6 20:02:56 10° NNW 20:08:34 57° NE 20:13:59 11° SE
Helios 1A Rocket 3.3 20:05:33 10° N 20:08:37 48° WNW 20:11:39 10° SW
EP 1 4.2 20:10:52 10° NW 20:13:28 89° W 20:15:44 14° SE
CZ-4B R/B 4.1 20:08:19 10° S 20:13:46 49° W 20:19:12 10° NNW
Cosmos 2233 Rocket 4.2 20:09:44 10° SSW 20:15:55 78° W 20:22:06 10° N
Cosmos 1486 Rocket 4.1 20:13:50 10° NNW 20:19:06 69° ENE 20:23:55 12° SE
Okean-O 2.9 20:15:45 10° S 20:20:06 66° WSW 20:24:28 10° NNW
Cosmos 1758 Rocket 3.7 20:16:32 10° NNW 20:20:57 78° W 20:25:22 10° S
Cosmos 2219 Rocket 2.8 20:15:46 10° NNW 20:21:15 47° NE 20:26:24 12° ESE
Cosmos 909 Rocket 4.1 20:15:56 10° SW 20:22:14 86° SE 20:28:53 10° NE
CZ-2C R/B 3.1 20:21:09 14° SE 20:23:01 29° ENE 20:25:29 10° N
DNEPR-1 R/B 4.4 20:23:44 10° NW 20:29:07 77° SW 20:34:57 14° SSE
Nadezhda 4 Rocket 4.2 20:24:08 10° N 20:30:09 55° ENE 20:35:27 14° SSE
Meteor 1-25 Rocket 4.2 20:24:41 10° NNW 20:30:23 83° ENE 20:35:42 11° SSE
USA 245 4.3 20:25:45 10° SSE 20:31:39 90° ENE 20:37:07 10° NNW
IRS-1C Rocket 4.2 20:27:08 12° SSE 20:31:58 71° ENE 20:37:14 10° NNW
Cosmos 1825 Rocket 4.0 20:29:23 10° N 20:33:35 46° ENE 20:36:52 16° SE
Cosmos 1805 2.9 20:30:58 10° N 20:34:13 61° ENE 20:36:34 17° SSE
Cosmos 220 Rocket 3.9 20:33:29 10° S 20:37:28 60° ESE 20:41:32 10° NNE
NOSS 3-3 (C) 3.9 20:32:10 10° SW 20:37:33 84° NW 20:44:06 10° NE
Meteor 2-10 4.4 20:32:19 10° N 20:38:02 66° ENE 20:42:50 15° SSE
Cosmos 2322 Rocket 2.2 20:35:26 10° NNW 20:41:08 87° WSW 20:45:50 16° SSE
RESURS DK-1 4.3 20:38:50 10° N 20:41:54 21° NE 20:44:56 10° E
Cosmos 1602 Rocket 3.6 20:40:35 10° NNW 20:44:54 77° W 20:48:44 13° S
USA 306 2.3 20:43:28 10° W 20:46:11 44° N 20:47:38 14° ENE
Cosmos 2082 Rocket 3.4 20:41:49 10° WSW 20:47:19 46° NW 20:52:49 10° NNE
NOSS 3-4 (A) 3.9 20:42:08 10° NW 20:48:44 71° SW 20:55:07 16° SSE
NOSS 3-4 (C) 3.9 20:42:47 10° NW 20:49:23 72° SW 20:55:45 16° SSE
Cosmos 1707 3.9 20:52:04 15° E 20:52:23 15° E 20:54:06 10° NE
CZ-4B R/B 2.9 20:49:58 15° S 20:52:40 57° WSW 20:56:08 10° NNW
Cosmos 2151 3.9 20:51:12 10° NNW 20:55:06 42° W 20:58:57 10° SSW
Cosmos 2058 Rocket 4.5 20:53:53 17° ESE 20:55:50 23° E 20:59:13 10° NE
Cosmos 1076 Rocket 3.7 20:53:26 10° N 20:57:39 57° ENE 21:00:20 21° SSE
Cosmos 2098 Rocket 3.0 20:53:24 11° S 20:57:50 78° E 21:01:52 10° NNE
Cosmos 44 3.8 20:53:11 10° NW 20:58:36 65° NE 21:02:45 17° ESE
Cosmos 2237 Rocket 4.1 20:54:37 10° NNW 20:59:00 22° NE 21:03:23 10° E
CZ-4C R/B 4.0 20:56:30 10° W 21:00:56 33° NNW 21:06:35 10° NE
Ariane Rocket 3.2 20:59:02 15° S 21:03:14 69° WSW 21:08:19 10° NNW
SL-16 R/B 3.4 21:07:00 10° NW 21:12:02 33° WSW 21:16:43 11° SSW
COSMOS 2428 3.6 21:07:42 10° NNW 21:13:09 42° NE 21:17:37 15° ESE
SPOT 3 Rocket 4.3 21:09:24 12° S 21:13:58 45° W 21:18:55 10° NNW
Cosmos 1470 4.3 21:12:29 10° NNE 21:14:51 18° ENE 21:16:07 15° E
Cosmos 1763 Rocket 3.6 21:10:53 14° S 21:15:15 58° ESE 21:20:26 10° NNE
USA 186 4.4 21:14:50 10° WSW 21:15:41 11° W 21:16:32 10° WNW
ARIANE 5 R/B 4.3 21:15:19 13° ESE 21:18:09 23° ENE 21:21:39 10° N
ALOS 2 4.5 21:17:23 12° ESE 21:20:13 20° ENE 21:23:25 10° NNE
USA 290 2.0 21:18:07 19° SSW 21:20:15 89° SE 21:23:25 10° NNE
Cosmos 1606 Rocket 3.5 21:17:15 16° SSW 21:20:44 83° WNW 21:25:03 10° N
Cosmos 1898 Rocket 4.3 21:15:55 10° NNW 21:20:51 42° NE 21:24:24 18° ESE
Cosmos 990 Rocket 4.0 21:17:38 10° NNW 21:22:49 79° WSW 21:26:04 23° SSE
Cosmos 1464 Rocket 4.1 21:18:41 10° SSW 21:24:45 80° WNW 21:31:00 10° N
Helios 1B rocket 3.1 21:24:22 23° ESE 21:25:51 34° ENE 21:29:04 10° N
ISS -3.9 21:23:19 10° W 21:26:39 72° SSW 21:28:15 28° ESE
CZ-4B R/B 4.3 21:23:15 14° SSW 21:27:00 40° W 21:31:37 10° NNW
Cosmos 1461 4.0 21:23:41 10° WSW 21:27:11 40° NW 21:30:41 10° NNE
Okean 1 3.1 21:25:54 22° SSW 21:28:07 78° W 21:31:45 10° N
Cosmos 1726 Rocket 3.3 21:25:49 22° S 21:28:23 88° E 21:32:28 10° N
BREEZE-M DEB (TANK) 1.8 21:26:27 10° W 21:28:12 35° SW 21:28:12 35° SW
COSMOS 2406 4.4 21:26:00 10° WSW 21:31:28 44° NW 21:36:58 10° NNE
Okean O Rocket 4.1 21:32:25 10° WSW 21:34:39 14° W 21:36:53 10° NW
Cosmos 1536 2.7 21:31:53 10° N 21:35:33 61° ENE 21:36:59 33° SE
Cosmos-2242 2.9 21:37:47 29° S 21:39:44 66° E 21:43:50 10° NNE
Cosmos 1092 Rocket 4.0 21:35:11 10° N 21:41:23 85° ENE 21:45:20 24° SSE
Cosmos 2333 Rocket 3.9 21:37:54 10° NW 21:42:17 23° WSW 21:46:30 11° SSW
NOSS 0 Rocket 4.4 21:36:17 10° NNW 21:42:22 55° NE 21:46:51 18° ESE
KORONAS-FOTON 3.9 21:43:53 38° SE 21:44:37 46° E 21:47:54 10° NNE
Cosmos 2297 Rocket 3.8 21:46:14 16° ESE 21:47:33 18° E 21:51:09 10° ENE
Cosmos 841 Rocket 4.4 21:47:27 25° SE 21:49:10 31° ESE 21:53:44 10° NE
Cosmos 1833 4.2 21:44:24 10° SSW 21:50:04 88° WNW 21:55:45 10° NNE
Cosmos 2360 Rocket 3.4 21:47:20 10° NW 21:52:16 31° WSW 21:55:44 17° SSW
CZ-2C R/B 4.4 21:52:45 13° WSW 21:53:50 15° W 21:55:36 10° NW
Cosmos 1766 3.1 21:52:42 10° NNW 21:55:52 56° W 21:56:45 39° SSW
Cosmos 2322 3.7 21:51:21 10° NNW 21:57:06 83° ENE 22:00:18 27° SE
Cosmos 1842 3.0 21:56:49 43° ESE 21:57:09 45° E 22:00:12 10° NNE
Cosmos 1975 3.3 21:54:35 10° N 21:58:07 42° ENE 21:59:14 32° ESE
Spot 4 4.3 21:57:15 26° SE 21:59:40 51° ENE 22:04:19 10° N
Meteor 2-6 Rocket 4.5 21:58:28 27° SSE 22:01:44 63° E 22:07:37 10° NNE
Cosmos 372 Rocket 3.9 21:57:50 10° NNW 22:02:58 79° WSW 22:05:24 31° SSE
Cosmos 2034 Rocket 4.4 21:58:36 15° SSW 22:03:59 64° WNW 22:10:18 10° N
Cosmos 2221 3.2 22:03:18 31° SE 22:04:27 38° E 22:08:22 10° NNE
Cosmos 2219 Rocket 3.1 21:59:55 10° NW 22:05:07 38° WSW 22:08:05 22° SSW
Cosmos 1271 Rocket 2.6 22:06:21 46° SE 22:06:52 52° E 22:10:09 10° NNE
SL-08 ROCKET BODY 4.4 22:03:59 10° N 22:10:12 85° E 22:13:38 28° SSE
Cosmos 540 Rocket 3.9 22:07:45 12° SW 22:12:32 60° WNW 22:17:38 10° NNE
Helios 1A 3.0 22:12:24 10° N 22:16:19 68° WNW 22:18:07 30° SSW
RESURS DK-1 2.3 22:15:42 10° NW 22:19:39 69° WSW 22:20:45 44° S
Cosmos 2279 Rocket 4.0 22:16:39 28° S 22:20:10 77° E 22:26:27 10° NNE
Aureole 1 Rocket 4.4 22:15:21 10° NW 22:20:57 50° WSW 22:24:34 26° S
Cosmos 2322 Rocket 4.2 22:20:46 10° WNW 22:24:21 17° W 22:27:37 11° SW
Cosmos 1707 3.6 22:23:33 24° WSW 22:24:22 28° WNW 22:26:54 10° N
Cosmos 1634 Rocket 4.1 22:22:33 23° SSW 22:26:36 73° WNW 22:32:50 10° N
Meteor 1-19 Rocket 4.5 22:24:37 31° SSE 22:27:23 61° E 22:33:16 10° NNE
Cosmos 1937 Rocket 3.4 22:22:43 10° NNW 22:27:53 87° WSW 22:30:09 34° SSE
TSX-5 4.3 22:26:55 10° NW 22:29:48 33° WSW 22:29:54 33° WSW
Geosat 4.1 22:26:58 10° NNE 22:31:59 76° NW 22:35:38 19° SW
SL-16 R/B 4.0 22:27:26 10° NNW 22:32:19 28° NE 22:37:10 10° E
CZ-2C R/B 3.6 22:28:05 10° NNE 22:32:34 75° ESE 22:34:15 38° S
Cosmos 2058 Rocket 3.9 22:30:59 22° SW 22:33:25 45° WNW 22:37:35 10° N
Cosmos 468 Rocket 4.2 22:30:13 20° SW 22:33:55 69° WNW 22:39:10 10° NNE
GP-B 3.7 22:30:35 10° NNE 22:34:48 44° E 22:36:11 33° SE
Meteor 2-9 Rocket 4.2 22:33:30 10° NNW 22:38:53 71° W 22:41:25 33° S
CZ-2C R/B 3.4 22:39:09 22° SE 22:42:10 44° ENE 22:47:03 10° N
Lacrosse 4 Rocket 2.8 22:42:44 21° ESE 22:42:44 21° ESE 22:45:41 10° ENE
Cosmos 2237 Rocket 2.3 22:38:19 10° NNW 22:44:01 76° ENE 22:47:09 28° SE
USA 234 3.8 22:41:19 10° ENE 22:47:21 38° SE 22:49:36 30° S
Cosmos 2266 Rocket 3.9 22:41:20 10° N 22:47:25 86° E 22:50:26 32° SSE
SeaSat 1 3.9 22:43:04 10° ESE 22:47:27 34° NE 22:51:51 10° NNW
Cosmos 1980 3.7 22:42:35 10° NNW 22:48:17 86° ENE 22:51:12 30° SSE
Cosmos 1470 3.3 22:45:51 10° NNW 22:48:53 34° W 22:49:19 33° WSW
CZ-4C R/B 4.4 22:45:52 10° NW 22:50:48 30° N 22:56:58 10° ENE
ATLAS 2AS CENTAUR R/B 4.1 22:46:09 10° NW 22:52:25 37° NNE 22:58:39 10° E
Intercosmos 24 3.9 22:48:47 10° N 22:52:39 59° ENE 22:53:30 44° SE
ARIANE 5 R/B 2.9 22:52:41 37° SSW 22:54:07 55° W 22:58:32 10° NNW
ALOS 2 2.7 22:54:46 40° SSW 22:56:09 63° WSW 23:00:32 10° NNW
COSMOS 2428 3.3 22:52:02 10° NW 22:57:25 44° WSW 22:59:34 31° SSW
Cosmos 2227 Rocket 3.5 22:55:49 22° SE 22:57:31 25° ESE 23:02:04 10° NE
Helios 1B rocket 3.7 22:58:18 20° WSW 22:58:55 21° W 23:01:41 10° NW
Meteor 2-4 Rocket 4.2 23:00:13 30° SE 23:02:25 46° E 23:07:43 10° NNE
Cosmos 1898 Rocket 4.4 22:58:03 10° NW 23:02:47 36° WSW 23:04:34 28° SW
ISS -1.5 23:00:18 10° W 23:01:11 15° W 23:01:11 15° W
BlueWalker 3 3.8 23:05:21 16° E 23:05:21 16° E 23:06:24 10° E
Cosmos 2263 Rocket 3.8 23:03:56 17° ESE 23:05:41 19° E 23:09:28 10° ENE
CZ-2C R/B 3.5 23:01:09 10° NNE 23:06:52 59° E 23:09:26 33° SSE
Meteor 1-11 Rocket 3.8 23:02:09 10° NNW 23:07:46 64° W 23:10:10 34° SSW
Cosmos 1766 Rocket 3.6 23:04:27 10° N 23:08:45 71° ENE 23:10:08 41° SSE
SAR-Lupe-2 3.7 23:10:57 47° WSW 23:11:10 48° W 23:14:24 10° NNW
Meteor 1-10 Rocket 4.4 23:11:29 30° SSW 23:14:31 77° WNW 23:20:31 10° N
Cosmos 1238 Rocket 3.1 23:14:04 45° SSE 23:15:06 62° E 23:19:29 10° NNE
PSLV R/B 3.6 23:11:24 10° N 23:15:41 74° WNW 23:17:16 39° SSW
Cosmos 1655 Rocket 4.0 23:14:39 10° N 23:20:55 79° ENE 23:24:15 30° SSE
Cosmos 192 4.3 23:17:10 10° NNW 23:22:09 83° ENE 23:24:20 34° SSE
Alouette 2 Rocket 3.5 23:22:51 10° NNW 23:26:39 89° ENE 23:28:18 39° SSE
Meteor 1-27 Rocket 3.7 23:25:49 33° SSW 23:28:35 88° WNW 23:34:21 10° NNE
Meteor 2-10 Rocket 3.8 23:23:44 10° N 23:29:16 74° ENE 23:32:13 30° SSE
Cosmos 841 Rocket 4.2 23:27:23 20° SW 23:30:45 49° WNW 23:35:52 10° NNE
Cosmos 2297 Rocket 2.1 23:27:59 31° SSW 23:30:47 88° ESE 23:36:28 10° NNE
SL-14 R/B 4.1 23:39:49 32° SE 23:40:45 37° E 23:44:16 10° NNE
CZ-4C R/B 3.8 23:38:05 10° NNE 23:41:17 37° E 23:41:47 35° ESE
Cosmos 2221 4.1 23:39:35 18° WSW 23:41:36 25° WNW 23:45:08 10° N
Cosmos 158 Rocket 4.1 23:39:40 36° S 23:41:50 68° ESE 23:47:09 10° NNE
ACS3 Solar Sail 2.4 23:37:18 10° NNE 23:43:00 44° E 23:46:10 25° SSE
MetOp-A 4.3 23:42:38 34° SW 23:44:11 46° W 23:48:40 10° NNW
Landsat 5 3.5 23:43:19 10° NNE 23:47:23 65° ESE 23:48:28 44° SSE
Cosmos 1500 Rocket 4.5 23:44:19 10° N 23:48:34 43° ENE 23:50:58 23° SE
